| time (UTC) | temp F | wind direction | speed knots | gust knots | rain 1hr in | rain 24hr in | rain mn in | humidity % | barometer mb |
| 20260903063904 | 50 | 198 | 0.0 | 0.9 | 0.00 | 0.71 | 0.00 | 85 | 1008.0 |
| 20260903063404 | 50 | 198 | 0.0 | 1.7 | 0.00 | 0.71 | 0.00 | 85 | 1008.3 |
| 20260903062906 | 50 | 198 | 0.0 | 1.7 | 0.00 | 0.71 | 0.00 | 85 | 1008.3 |
| 20260903062359 | 50 | 248 | 0.0 | 0.0 | 0.00 | 0.71 | 0.00 | 85 | 1008.4 |
| 20260903061850 | 50 | 218 | 0.0 | 0.0 | 0.00 | 0.71 | 0.00 | 85 | 1008.3 |
| 20260903060838 | 50 | 217 | 0.0 | 0.0 | 0.00 | 0.71 | 0.00 | 85 | 1008.2 |
| 20260903060340 | 50 | 217 | 0.0 | 0.0 | 0.00 | 0.71 | 0.00 | 85 | 1008.2 |
| 20260903055336 | 50 | 217 | 0.0 | 0.0 | 0.00 | 0.71 | 0.71 | 84 | 1008.4 |
| 20260903054835 | 50 | 217 | 0.0 | 0.0 | 0.00 | 0.71 | 0.71 | 84 | 1008.5 |
| 20260903053833 | 50 | 217 | 0.0 | 0.0 | 0.00 | 0.71 | 0.71 | 84 | 1008.4 |
| 20260903053333 | 50 | 217 | 0.0 | 0.0 | 0.00 | 0.71 | 0.71 | 84 | 1008.5 |
| 20260903052831 | 50 | 217 | 0.0 | 0.0 | 0.00 | 0.71 | 0.71 | 84 | 1008.6 |
| 20260903052331 | 50 | 217 | 0.0 | 0.0 | 0.00 | 0.71 | 0.71 | 84 | 1008.6 |
| 20260903051830 | 50 | 217 | 0.0 | 0.0 | 0.00 | 0.71 | 0.71 | 84 | 1008.6 |
| 20260903051331 | 50 | 217 | 0.0 | 0.0 | 0.00 | 0.71 | 0.71 | 83 | 1008.7 |
| 20260903050831 | 50 | 217 | 0.0 | 0.0 | 0.00 | 0.71 | 0.71 | 83 | 1008.7 |
| 20260903050331 | 51 | 217 | 0.0 | 0.0 | 0.00 | 0.71 | 0.71 | 83 | 1008.6 |
| 20260903045834 | 50 | 217 | 0.0 | 0.0 | 0.00 | 0.71 | 0.71 | 82 | 1008.9 |
| 20260903045335 | 50 | 217 | 0.0 | 0.0 | 0.00 | 0.71 | 0.71 | 81 | 1008.9 |
| 20260903044834 | 50 | 217 | 0.0 | 0.0 | 0.00 | 0.71 | 0.71 | 80 | 1009.0 |
| 20260903043833 | 51 | 217 | 0.0 | 0.0 | 0.00 | 0.71 | 0.71 | 77 | 1009.0 |
| 20260903043337 | 51 | 217 | 0.0 | 0.0 | 0.00 | 0.71 | 0.71 | 77 | 1009.1 |
| 20260903042831 | 51 | 217 | 0.0 | 0.0 | 0.00 | 0.71 | 0.71 | 76 | 1009.1 |
| 20260903042331 | 51 | 217 | 0.0 | 0.0 | 0.00 | 0.71 | 0.71 | 75 | 1009.1 |
| 20260903041832 | 51 | 217 | 0.0 | 0.0 | 0.00 | 0.71 | 0.71 | 75 | 1009.1 |
| 20260903041330 | 51 | 217 | 0.0 | 0.0 | 0.00 | 0.71 | 0.71 | 75 | 1009.3 |
| 20260903040831 | 51 | 217 | 0.0 | 0.0 | 0.00 | 0.71 | 0.71 | 74 | 1009.3 |
| 20260903040331 | 52 | 217 | 0.0 | 0.9 | 0.00 | 0.71 | 0.71 | 74 | 1009.4 |
| 20260903035831 | 52 | 217 | 0.9 | 2.6 | 0.00 | 0.71 | 0.71 | 73 | 1009.4 |
| 20260903035333 | 52 | 217 | 0.9 | 2.6 | 0.00 | 0.71 | 0.71 | 73 | 1009.5 |
| 20260903034832 | 53 | 214 | 0.9 | 2.6 | 0.00 | 0.71 | 0.71 | 72 | 1009.4 |
| 20260903033334 | 54 | 211 | 1.7 | 3.5 | 0.00 | 0.71 | 0.71 | 69 | 1009.4 |
| 20260903032333 | 54 | 231 | 1.7 | 3.5 | 0.00 | 0.71 | 0.71 | 68 | 1009.4 |
| 20260903031331 | 54 | 241 | 1.7 | 6.1 | 0.00 | 0.71 | 0.71 | 69 | 1009.3 |
| 20260903030830 | 54 | 208 | 0.9 | 3.5 | 0.00 | 0.71 | 0.71 | 70 | 1009.4 |
| 20260903030331 | 54 | 208 | 0.9 | 2.6 | 0.00 | 0.71 | 0.71 | 70 | 1009.4 |
| 20260903025832 | 54 | 205 | 0.9 | 3.5 | 0.00 | 0.71 | 0.71 | 70 | 1009.3 |
| 20260903024831 | 54 | 206 | 0.9 | 3.5 | 0.00 | 0.71 | 0.71 | 71 | 1009.3 |
| 20260903023331 | 54 | 205 | 1.7 | 3.5 | 0.00 | 0.71 | 0.71 | 70 | 1009.3 |
| 20260903022833 | 55 | 202 | 1.7 | 4.3 | 0.00 | 0.71 | 0.71 | 69 | 1009.2 |
| 20260903021831 | 55 | 214 | 1.7 | 4.3 | 0.00 | 0.71 | 0.71 | 69 | 1009.3 |
| 20260903021336 | 55 | 211 | 1.7 | 4.3 | 0.00 | 0.71 | 0.71 | 69 | 1009.4 |
| 20260903020833 | 55 | 212 | 1.7 | 6.1 | 0.00 | 0.71 | 0.71 | 69 | 1009.4 |
| 20260903015834 | 55 | 246 | 2.6 | 6.1 | 0.00 | 0.71 | 0.71 | 70 | 1009.3 |
| 20260903015333 | 54 | 229 | 2.6 | 4.3 | 0.00 | 0.71 | 0.71 | 70 | 1009.3 |
| 20260903014834 | 55 | 244 | 2.6 | 5.2 | 0.00 | 0.71 | 0.71 | 70 | 1009.3 |
| 20260903014334 | 55 | 221 | 2.6 | 6.1 | 0.00 | 0.71 | 0.71 | 69 | 1009.3 |
| 20260903013835 | 55 | 232 | 2.6 | 6.1 | 0.00 | 0.71 | 0.71 | 69 | 1009.4 |
| 20260903013334 | 55 | 229 | 2.6 | 5.2 | 0.00 | 0.71 | 0.71 | 70 | 1009.3 |
| 20260903012832 | 55 | 242 | 1.7 | 4.3 | 0.00 | 0.71 | 0.71 | 70 | 1009.3 |
| 20260903011832 | 54 | 210 | 1.7 | 3.5 | 0.00 | 0.71 | 0.71 | 71 | 1009.5 |
| 20260903010332 | 54 | 205 | 1.7 | 5.2 | 0.00 | 0.71 | 0.71 | 71 | 1009.7 |
| 20260903005830 | 54 | 205 | 1.7 | 5.2 | 0.00 | 0.71 | 0.71 | 72 | 1009.6 |
| 20260903005330 | 54 | 226 | 2.6 | 7.0 | 0.00 | 0.71 | 0.71 | 71 | 1009.7 |
| 20260903004834 | 54 | 0 | 1.7 | 7.0 | 0.01 | 0.71 | 0.71 | 72 | 1009.7 |
| 20260903004332 | 53 | 0 | 1.7 | 7.0 | 0.01 | 0.71 | 0.71 | 72 | 1009.7 |
| 20260903003831 | 53 | 0 | 1.7 | 5.2 | 0.01 | 0.71 | 0.71 | 75 | 1010.0 |
| 20260903003331 | 53 | 0 | 2.6 | 5.2 | 0.01 | 0.71 | 0.71 | 74 | 1010.0 |
| 20260903002830 | 53 | 0 | 2.6 | 7.0 | 0.01 | 0.71 | 0.71 | 75 | 1010.0 |
| 20260903002332 | 53 | 0 | 2.6 | 7.0 | 0.02 | 0.71 | 0.71 | 76 | 1010.2 |
| 20260903001825 | 53 | 0 | 3.5 | 8.7 | 0.02 | 0.71 | 0.71 | 77 | 1010.1 |
| 20260903001319 | 53 | 0 | 2.6 | 8.7 | 0.02 | 0.71 | 0.71 | 77 | 1010.2 |
| 20260903000812 | 53 | 0 | 2.6 | 7.0 | 0.03 | 0.71 | 0.71 | 79 | 1010.2 |
| 20260903000313 | 53 | 0 | 2.6 | 8.7 | 0.03 | 0.71 | 0.71 | 80 | 1010.1 |
| 20260902235811 | 53 | 0 | 2.6 | 8.7 | 0.03 | 0.71 | 0.71 | 82 | 1010.3 |
| 20260902235311 | 53 | 0 | 2.6 | 7.8 | 0.04 | 0.71 | 0.71 | 82 | 1010.2 |
| 20260902234811 | 53 | 0 | 2.6 | 7.8 | 0.03 | 0.70 | 0.70 | 82 | 1010.3 |
| 20260902233807 | 53 | 0 | 2.6 | 7.8 | 0.04 | 0.70 | 0.70 | 84 | 1010.3 |
| 20260902232809 | 53 | 0 | 2.6 | 8.7 | 0.06 | 0.70 | 0.69 | 84 | 1010.4 |
| 20260902231808 | 54 | 0 | 1.7 | 3.5 | 0.10 | 0.69 | 0.69 | 85 | 1010.4 |
| 20260902231309 | 54 | 0 | 1.7 | 7.0 | 0.12 | 0.69 | 0.69 | 85 | 1010.4 |
| 20260902230315 | 53 | 0 | 1.7 | 5.2 | 0.17 | 0.68 | 0.68 | 82 | 1010.3 |
| 20260902225309 | 53 | 0 | 3.5 | 8.7 | 0.21 | 0.67 | 0.67 | 81 | 1010.0 |
| 20260902224806 | 53 | 0 | 3.5 | 8.7 | 0.24 | 0.67 | 0.67 | 82 | 1010.0 |
| 20260902224308 | 53 | 0 | 3.5 | 10.4 | 0.26 | 0.67 | 0.66 | 82 | 1010.0 |
| 20260902223309 | 54 | 0 | 3.5 | 10.4 | 0.33 | 0.65 | 0.65 | 82 | 1010.1 |
| 20260902222806 | 54 | 0 | 3.5 | 10.4 | 0.37 | 0.64 | 0.63 | 82 | 1010.2 |
| 20260902222309 | 54 | 0 | 3.5 | 12.2 | 0.38 | 0.62 | 0.61 | 82 | 1010.1 |
| 20260902221805 | 54 | 0 | 3.5 | 12.2 | 0.38 | 0.59 | 0.59 | 82 | 1010.1 |
| 20260902221306 | 54 | 0 | 4.3 | 14.8 | 0.40 | 0.57 | 0.56 | 82 | 1010.1 |
| 20260902220803 | 54 | 0 | 5.2 | 14.8 | 0.39 | 0.54 | 0.53 | 82 | 1010.2 |
| 20260902220304 | 54 | 0 | 5.2 | 14.8 | 0.39 | 0.51 | 0.51 | 82 | 1010.3 |
| 20260902215803 | 55 | 0 | 4.3 | 13.9 | 0.41 | 0.49 | 0.48 | 82 | 1010.2 |
| 20260902215306 | 55 | 0 | 4.3 | 15.6 | 0.44 | 0.46 | 0.46 | 80 | 1010.0 |
| 20260902214805 | 55 | 0 | 4.3 | 15.6 | 0.43 | 0.43 | 0.43 | 77 | 1009.8 |
| 20260902213803 | 56 | 0 | 3.5 | 8.7 | 0.36 | 0.36 | 0.35 | 76 | 1009.6 |
| 20260902213304 | 56 | 0 | 2.6 | 8.7 | 0.32 | 0.32 | 0.31 | 76 | 1009.6 |
| 20260902212802 | 56 | 0 | 1.7 | 8.7 | 0.27 | 0.27 | 0.26 | 74 | 1009.6 |
| 20260902212306 | 56 | 0 | 1.7 | 9.6 | 0.24 | 0.24 | 0.23 | 74 | 1009.6 |
| 20260902211306 | 57 | 0 | 3.5 | 14.8 | 0.17 | 0.17 | 0.16 | 71 | 1009.6 |
| 20260902210803 | 57 | 0 | 4.3 | 14.8 | 0.15 | 0.15 | 0.14 | 71 | 1009.4 |
| 20260902210304 | 58 | 0 | 4.3 | 13.9 | 0.12 | 0.12 | 0.12 | 69 | 1009.3 |
| 20260902205802 | 59 | 0 | 4.3 | 13.9 | 0.08 | 0.08 | 0.07 | 68 | 1009.1 |
| 20260902205306 | 60 | 0 | 5.2 | 17.4 | 0.02 | 0.02 | 0.01 | 64 | 1008.7 |
| 20260902204805 | 62 | 0 | 6.1 | 17.4 | 0.00 | 0.00 | 0.00 | 61 | 1008.5 |
| 20260902204308 | 63 | 0 | 6.1 | 15.6 | 0.00 | 0.00 | 0.00 | 56 | 1008.0 |
| 20260902203807 | 64 | 0 | 4.3 | 18.2 | 0.00 | 0.00 | 0.00 | 54 | 1007.8 |
| 20260902203309 | 66 | 0 | 4.3 | 18.2 | 0.00 | 0.00 | 0.00 | 48 | 1007.3 |
| 20260902202808 | 68 | 0 | 3.5 | 16.5 | 0.00 | 0.00 | 0.00 | 45 | 1006.7 |
| 20260902202306 | 70 | 0 | 3.5 | 9.6 | 0.00 | 0.00 | 0.00 | 42 | 1006.3 |
| 20260902201803 | 71 | 0 | 2.6 | 7.8 | 0.00 | 0.00 | 0.00 | 40 | 1006.0 |
| 20260902201304 | 72 | 0 | 2.6 | 10.4 | 0.00 | 0.00 | 0.00 | 41 | 1005.8 |
| 20260902200805 | 73 | 0 | 2.6 | 10.4 | 0.00 | 0.00 | 0.00 | 39 | 1005.7 |
| 20260902200305 | 74 | 248 | 1.7 | 5.2 | 0.00 | 0.00 | 0.00 | 38 | 1005.7 |
| 20260902195802 | 74 | 224 | 1.7 | 6.1 | 0.00 | 0.00 | 0.00 | 37 | 1005.7 |
| 20260902195306 | 74 | 133 | 1.7 | 6.1 | 0.00 | 0.00 | 0.00 | 37 | 1005.6 |
| 20260902194759 | 74 | 153 | 1.7 | 8.7 | 0.00 | 0.00 | 0.00 | 35 | 1005.5 |
| 20260902194259 | 74 | 155 | 1.7 | 8.7 | 0.00 | 0.00 | 0.00 | 36 | 1005.5 |
| 20260902193758 | 73 | 169 | 2.6 | 6.1 | 0.00 | 0.00 | 0.00 | 36 | 1005.5 |
| 20260902193301 | 73 | 207 | 3.5 | 10.4 | 0.00 | 0.00 | 0.00 | 35 | 1005.6 |
| 20260902192758 | 73 | 111 | 3.5 | 10.4 | 0.00 | 0.00 | 0.00 | 35 | 1005.6 |
| 20260902192256 | 74 | 167 | 2.6 | 8.7 | 0.00 | 0.00 | 0.00 | 35 | 1005.6 |
| 20260902191757 | 73 | 0 | 3.5 | 11.3 | 0.00 | 0.00 | 0.00 | 36 | 1005.8 |
| 20260902191256 | 73 | 0 | 3.5 | 11.3 | 0.00 | 0.00 | 0.00 | 37 | 1005.8 |
| 20260902190256 | 74 | 180 | 2.6 | 8.7 | 0.00 | 0.00 | 0.00 | 35 | 1006.1 |
| 20260902185257 | 74 | 113 | 2.6 | 10.4 | 0.00 | 0.00 | 0.00 | 34 | 1006.1 |
| 20260902184757 | 74 | 178 | 1.7 | 10.4 | 0.00 | 0.00 | 0.00 | 34 | 1006.2 |
| 20260902184257 | 74 | 105 | 2.6 | 12.2 | 0.00 | 0.00 | 0.00 | 35 | 1006.2 |
| 20260902183750 | 74 | 166 | 2.6 | 12.2 | 0.00 | 0.00 | 0.00 | 34 | 1006.3 |
| 20260902182752 | 74 | 114 | 2.6 | 8.7 | 0.00 | 0.00 | 0.00 | 37 | 1006.1 |
| 20260902182251 | 73 | 219 | 1.7 | 8.7 | 0.00 | 0.00 | 0.00 | 37 | 1006.0 |
| 20260902181251 | 73 | 182 | 2.6 | 7.0 | 0.00 | 0.00 | 0.00 | 38 | 1005.9 |
| 20260902180750 | 73 | 173 | 2.6 | 7.0 | 0.00 | 0.00 | 0.00 | 37 | 1005.9 |
| 20260902180251 | 73 | 81 | 3.5 | 10.4 | 0.00 | 0.00 | 0.00 | 37 | 1006.0 |
| 20260902175752 | 73 | 221 | 2.6 | 10.4 | 0.00 | 0.00 | 0.00 | 37 | 1005.9 |
| 20260902175251 | 72 | 0 | 2.6 | 7.0 | 0.00 | 0.00 | 0.00 | 38 | 1005.9 |
| 20260902174746 | 72 | 0 | 1.7 | 7.0 | 0.00 | 0.00 | 0.00 | 37 | 1006.0 |
| 20260902174246 | 72 | 0 | 1.7 | 5.2 | 0.00 | 0.00 | 0.00 | 37 | 1006.0 |
| 20260902173746 | 72 | 0 | 1.7 | 5.2 | 0.00 | 0.00 | 0.00 | 37 | 1005.9 |
| 20260902173246 | 71 | 0 | 1.7 | 7.0 | 0.00 | 0.00 | 0.00 | 40 | 1006.0 |
| 20260902172747 | 71 | 0 | 1.7 | 7.0 | 0.00 | 0.00 | 0.00 | 38 | 1005.9 |
| 20260902172248 | 70 | 0 | 1.7 | 4.3 | 0.00 | 0.00 | 0.00 | 39 | 1005.9 |
| 20260902171248 | 70 | 0 | 1.7 | 2.6 | 0.00 | 0.00 | 0.00 | 40 | 1006.0 |
| 20260902170747 | 70 | 0 | 0.9 | 2.6 | 0.00 | 0.00 | 0.00 | 40 | 1006.1 |
| 20260902170242 | 70 | 0 | 0.9 | 1.7 | 0.00 | 0.00 | 0.00 | 41 | 1006.0 |
| 20260902165743 | 70 | 0 | 0.9 | 1.7 | 0.00 | 0.00 | 0.00 | 43 | 1006.0 |
| 20260902165242 | 70 | 0 | 0.9 | 1.7 | 0.00 | 0.00 | 0.00 | 43 | 1006.0 |
| 20260902164742 | 70 | 0 | 0.9 | 2.6 | 0.00 | 0.00 | 0.00 | 44 | 1006.0 |
| 20260902164242 | 69 | 0 | 1.7 | 2.6 | 0.00 | 0.00 | 0.00 | 43 | 1005.9 |
| 20260902163242 | 70 | 0 | 0.9 | 2.6 | 0.00 | 0.00 | 0.00 | 42 | 1006.0 |
| 20260902162742 | 70 | 0 | 0.9 | 1.7 | 0.00 | 0.00 | 0.00 | 42 | 1006.0 |
| 20260902161743 | 69 | 113 | 1.7 | 2.6 | 0.00 | 0.00 | 0.00 | 45 | 1006.0 |
| 20260902161247 | 68 | 116 | 1.7 | 3.5 | 0.00 | 0.00 | 0.00 | 45 | 1006.1 |
| 20260902160246 | 68 | 114 | 2.6 | 5.2 | 0.00 | 0.00 | 0.00 | 46 | 1006.2 |
| 20260902155746 | 68 | 120 | 1.7 | 5.2 | 0.00 | 0.00 | 0.00 | 45 | 1006.2 |
| 20260902155243 | 68 | 107 | 0.9 | 3.5 | 0.00 | 0.00 | 0.00 | 45 | 1006.2 |
| 20260902154747 | 68 | 0 | 0.9 | 3.5 | 0.00 | 0.00 | 0.00 | 45 | 1006.1 |
| 20260902154245 | 67 | 0 | 0.0 | 1.7 | 0.00 | 0.00 | 0.00 | 46 | 1006.0 |
| 20260902153742 | 67 | 0 | 0.9 | 2.6 | 0.00 | 0.00 | 0.00 | 47 | 1006.1 |
| 20260902153242 | 66 | 0 | 0.9 | 3.5 | 0.00 | 0.00 | 0.00 | 46 | 1006.0 |
| 20260902152744 | 67 | 0 | 0.9 | 3.5 | 0.00 | 0.00 | 0.00 | 46 | 1005.9 |
| 20260902152246 | 67 | 0 | 0.9 | 2.6 | 0.00 | 0.00 | 0.00 | 47 | 1006.1 |
| 20260902151741 | 67 | 0 | 0.9 | 2.6 | 0.00 | 0.00 | 0.00 | 48 | 1006.2 |
| 20260902151242 | 67 | 0 | 0.0 | 2.6 | 0.00 | 0.00 | 0.00 | 49 | 1006.3 |
| 20260902150239 | 67 | 0 | 0.9 | 2.6 | 0.00 | 0.00 | 0.00 | 49 | 1006.6 |
| 20260902145738 | 66 | 0 | 0.0 | 2.6 | 0.00 | 0.00 | 0.00 | 49 | 1006.6 |
| 20260902145237 | 66 | 0 | 0.0 | 1.7 | 0.00 | 0.00 | 0.00 | 48 | 1006.7 |
| 20260902144736 | 66 | 0 | 0.9 | 2.6 | 0.00 | 0.00 | 0.00 | 47 | 1006.7 |
| 20260902144236 | 66 | 0 | 0.9 | 2.6 | 0.00 | 0.00 | 0.00 | 49 | 1006.7 |
| 20260902143736 | 66 | 30 | 0.0 | 1.7 | 0.00 | 0.00 | 0.00 | 49 | 1006.8 |
| 20260902143234 | 65 | 355 | 0.0 | 1.7 | 0.00 | 0.00 | 0.00 | 46 | 1006.7 |
| 20260902142734 | 65 | 355 | 0.0 | 0.9 | 0.00 | 0.00 | 0.00 | 48 | 1006.8 |
| 20260902142233 | 65 | 106 | 0.0 | 0.9 | 0.00 | 0.00 | 0.00 | 50 | 1006.7 |
| 20260902141733 | 65 | 121 | 0.0 | 0.9 | 0.00 | 0.00 | 0.00 | 51 | 1006.7 |
| 20260902141230 | 64 | 121 | 0.0 | 0.9 | 0.00 | 0.00 | 0.00 | 49 | 1006.7 |
| 20260902140734 | 64 | 121 | 0.9 | 2.6 | 0.00 | 0.00 | 0.00 | 49 | 1006.6 |
| 20260902140231 | 64 | 119 | 0.9 | 3.5 | 0.00 | 0.00 | 0.00 | 49 | 1006.5 |
| 20260902135734 | 64 | 119 | 1.7 | 3.5 | 0.00 | 0.00 | 0.00 | 50 | 1006.6 |
| 20260902134231 | 65 | 207 | 1.7 | 6.1 | 0.00 | 0.00 | 0.00 | 45 | 1006.6 |
| 20260902133733 | 65 | 229 | 2.6 | 7.8 | 0.00 | 0.00 | 0.00 | 45 | 1006.6 |
| 20260902133232 | 65 | 225 | 2.6 | 7.8 | 0.00 | 0.00 | 0.00 | 44 | 1006.5 |
| 20260902132732 | 65 | 0 | 1.7 | 6.1 | 0.00 | 0.00 | 0.00 | 44 | 1006.6 |
| 20260902131735 | 65 | 0 | 3.5 | 9.6 | 0.00 | 0.00 | 0.00 | 45 | 1006.7 |
| 20260902131231 | 65 | 0 | 3.5 | 10.4 | 0.00 | 0.00 | 0.00 | 45 | 1006.7 |
| 20260902130735 | 65 | 0 | 2.6 | 10.4 | 0.00 | 0.00 | 0.00 | 45 | 1006.8 |
| 20260902130234 | 65 | 0 | 3.5 | 13.0 | 0.00 | 0.00 | 0.00 | 45 | 1006.9 |
| 20260902125731 | 65 | 0 | 3.5 | 13.0 | 0.00 | 0.00 | 0.00 | 45 | 1007.1 |
| 20260902125231 | 65 | 0 | 3.5 | 8.7 | 0.00 | 0.00 | 0.00 | 45 | 1007.2 |
| 20260902124230 | 65 | 0 | 3.5 | 8.7 | 0.00 | 0.00 | 0.00 | 43 | 1007.1 |
| 20260902123732 | 65 | 0 | 3.5 | 11.3 | 0.00 | 0.00 | 0.00 | 43 | 1007.1 |
| 20260902123231 | 66 | 0 | 3.5 | 11.3 | 0.00 | 0.00 | 0.00 | 43 | 1007.1 |
| 20260902122735 | 66 | 0 | 3.5 | 8.7 | 0.00 | 0.00 | 0.00 | 42 | 1007.2 |
| 20260902122230 | 67 | 0 | 4.3 | 10.4 | 0.00 | 0.00 | 0.00 | 41 | 1007.2 |
| 20260902120734 | 66 | 0 | 2.6 | 5.2 | 0.00 | 0.00 | 0.00 | 42 | 1007.1 |
| 20260902120231 | 66 | 0 | 2.6 | 7.0 | 0.00 | 0.00 | 0.00 | 42 | 1007.1 |
| 20260902115731 | 66 | 0 | 2.6 | 11.3 | 0.00 | 0.00 | 0.00 | 42 | 1007.1 |
| 20260902115230 | 66 | 0 | 2.6 | 11.3 | 0.00 | 0.00 | 0.00 | 42 | 1007.2 |
| 20260902114732 | 66 | 0 | 3.5 | 10.4 | 0.00 | 0.00 | 0.00 | 43 | 1007.1 |
| 20260902114235 | 66 | 0 | 4.3 | 9.6 | 0.00 | 0.00 | 0.00 | 43 | 1007.2 |
| 20260902113731 | 66 | 0 | 4.3 | 8.7 | 0.00 | 0.00 | 0.00 | 44 | 1007.2 |
| 20260902112231 | 66 | 0 | 2.6 | 8.7 | 0.00 | 0.00 | 0.00 | 41 | 1007.3 |
| 20260902111732 | 66 | 0 | 2.6 | 7.8 | 0.00 | 0.00 | 0.00 | 42 | 1007.4 |
| 20260902111231 | 65 | 0 | 1.7 | 7.0 | 0.00 | 0.00 | 0.00 | 43 | 1007.7 |
| 20260902110731 | 65 | 0 | 1.7 | 7.0 | 0.00 | 0.00 | 0.00 | 43 | 1007.5 |
| 20260902110231 | 66 | 0 | 2.6 | 7.8 | 0.00 | 0.00 | 0.00 | 43 | 1007.7 |
| 20260902105230 | 66 | 0 | 2.6 | 5.2 | 0.00 | 0.00 | 0.00 | 42 | 1007.8 |
| 20260902104234 | 66 | 0 | 1.7 | 5.2 | 0.00 | 0.00 | 0.00 | 42 | 1007.5 |
| 20260902103731 | 67 | 0 | 1.7 | 5.2 | 0.00 | 0.00 | 0.00 | 45 | 1007.4 |
| 20260902103231 | 67 | 0 | 2.6 | 7.0 | 0.00 | 0.00 | 0.00 | 40 | 1007.4 |
| 20260902102731 | 68 | 0 | 2.6 | 7.8 | 0.00 | 0.00 | 0.00 | 39 | 1007.4 |
| 20260902102233 | 68 | 0 | 2.6 | 7.8 | 0.00 | 0.00 | 0.00 | 39 | 1007.5 |
| 20260902101731 | 68 | 0 | 3.5 | 8.7 | 0.00 | 0.00 | 0.00 | 39 | 1007.5 |
| 20260902101230 | 68 | 0 | 3.5 | 8.7 | 0.00 | 0.00 | 0.00 | 39 | 1007.5 |
| 20260902100732 | 68 | 0 | 3.5 | 8.7 | 0.00 | 0.00 | 0.00 | 39 | 1007.5 |
| 20260902100231 | 68 | 0 | 2.6 | 8.7 | 0.00 | 0.00 | 0.00 | 39 | 1007.7 |
| 20260902095732 | 68 | 0 | 2.6 | 5.2 | 0.00 | 0.00 | 0.00 | 39 | 1007.7 |
| 20260902095231 | 68 | 0 | 2.6 | 10.4 | 0.00 | 0.00 | 0.00 | 38 | 1007.7 |
| 20260902094738 | 69 | 0 | 3.5 | 10.4 | 0.00 | 0.00 | 0.00 | 38 | 1007.9 |
| 20260902094234 | 69 | 0 | 4.3 | 10.4 | 0.00 | 0.00 | 0.00 | 37 | 1008.0 |
| 20260902093731 | 69 | 0 | 3.5 | 9.6 | 0.00 | 0.00 | 0.00 | 38 | 1007.8 |
| 20260902093233 | 69 | 0 | 3.5 | 11.3 | 0.00 | 0.00 | 0.00 | 37 | 1007.9 |
| 20260902092231 | 69 | 0 | 3.5 | 11.3 | 0.00 | 0.00 | 0.00 | 39 | 1008.0 |
| 20260902091731 | 69 | 0 | 3.5 | 11.3 | 0.00 | 0.00 | 0.00 | 37 | 1008.2 |
| 20260902091230 | 69 | 0 | 2.6 | 8.7 | 0.00 | 0.00 | 0.00 | 36 | 1008.3 |
| 20260902090731 | 69 | 0 | 2.6 | 8.7 | 0.00 | 0.00 | 0.00 | 37 | 1008.2 |
| 20260902090230 | 69 | 0 | 2.6 | 7.8 | 0.00 | 0.00 | 0.00 | 37 | 1008.2 |
| 20260902085729 | 69 | 0 | 2.6 | 7.8 | 0.00 | 0.00 | 0.00 | 38 | 1008.3 |
| 20260902084717 | 68 | 0 | 2.6 | 5.2 | 0.00 | 0.00 | 0.00 | 38 | 1008.3 |
| 20260902083706 | 68 | 0 | 1.7 | 5.2 | 0.00 | 0.00 | 0.00 | 38 | 1008.5 |
| 20260902083205 | 68 | 0 | 2.6 | 9.6 | 0.00 | 0.00 | 0.00 | 38 | 1008.4 |
| 20260902082704 | 68 | 0 | 3.5 | 9.6 | 0.00 | 0.00 | 0.00 | 38 | 1008.5 |
| 20260902082205 | 68 | 0 | 4.3 | 9.6 | 0.00 | 0.00 | 0.00 | 37 | 1008.4 |
| 20260902081705 | 68 | 0 | 3.5 | 7.8 | 0.00 | 0.00 | 0.00 | 37 | 1008.4 |
| 20260902081204 | 69 | 0 | 2.6 | 5.2 | 0.00 | 0.00 | 0.00 | 36 | 1008.4 |
| 20260902080704 | 69 | 0 | 1.7 | 3.5 | 0.00 | 0.00 | 0.00 | 36 | 1008.2 |
| 20260902080205 | 68 | 0 | 0.9 | 3.5 | 0.00 | 0.00 | 0.00 | 36 | 1008.2 |
| 20260902075705 | 68 | 0 | 1.7 | 3.5 | 0.00 | 0.00 | 0.00 | 37 | 1008.2 |
| 20260902075206 | 68 | 0 | 0.9 | 2.6 | 0.00 | 0.00 | 0.00 | 40 | 1008.3 |
| 20260902074708 | 68 | 0 | 0.9 | 2.6 | 0.00 | 0.00 | 0.00 | 40 | 1008.1 |
| 20260902074208 | 67 | 0 | 0.9 | 2.6 | 0.00 | 0.00 | 0.00 | 40 | 1008.3 |
| 20260902073205 | 67 | 0 | 0.0 | 1.7 | 0.00 | 0.00 | 0.00 | 44 | 1008.4 |
| 20260902072204 | 68 | 0 | 0.9 | 2.6 | 0.00 | 0.00 | 0.00 | 45 | 1008.5 |
| 20260902071704 | 68 | 0 | 0.0 | 1.7 | 0.00 | 0.00 | 0.00 | 37 | 1008.6 |
| 20260902071203 | 69 | 0 | 0.9 | 3.5 | 0.00 | 0.00 | 0.00 | 38 | 1008.7 |
| 20260902070155 | 69 | 0 | 0.9 | 2.6 | 0.00 | 0.00 | 0.00 | 36 | 1008.7 |
| 20260902065141 | 70 | 0 | 0.9 | 3.5 | 0.00 | 0.00 | 0.00 | 35 | 1008.7 |
| 20260902064635 | 70 | 0 | 1.7 | 3.5 | 0.00 | 0.00 | 0.00 | 34 | 1008.6 |